AFR1855 DAAG-LFPG

Flight info

Callsign AFR1855
Flight time N/A
Altitude 38000
Route PECES N853 LUMAS DCT SOFFY DCT MRM DCT MTL DCT ETREK DCT RUSIT DCT BULOL DCT LOGNI DCT MOKIP DCT ARFOZ DCT TINIL
Aircraft B772/H-SDE2E3FGHIJ5LORVWXY/LB1D1

Departure

Time 2026-05-06 11:41
Airport Houari Boumediene Airport (DAAG)

Arrival

Time N/A
Airport Charles de Gaulle International Airport (LFPG)
Time Latitude Longitude Altitude Speed Heading
2026-05-06 11:33 36.69526 3.20493 74 ft 0 kts 181°
2026-05-06 11:35 36.69502 3.20493 71 ft 3 kts 181°
2026-05-06 11:35 36.69479 3.20492 67 ft 3 kts 181°
2026-05-06 11:36 36.69457 3.20498 65 ft 3 kts 144°
2026-05-06 11:36 36.69447 3.20527 68 ft 4 kts 109°
2026-05-06 11:36 36.69443 3.20560 69 ft 4 kts 93°
2026-05-06 11:36 36.69441 3.20593 71 ft 4 kts 93°
2026-05-06 11:37 36.69440 3.20626 71 ft 4 kts 92°
2026-05-06 11:37 36.69439 3.20659 68 ft 4 kts 91°
2026-05-06 11:37 36.69438 3.20693 67 ft 4 kts 92°
2026-05-06 11:37 36.69437 3.20726 74 ft 4 kts 92°
2026-05-06 11:38 36.69437 3.20760 69 ft 4 kts 92°
2026-05-06 11:38 36.69436 3.20793 66 ft 4 kts 91°
2026-05-06 11:38 36.69435 3.20827 65 ft 4 kts 92°
2026-05-06 11:38 36.69423 3.20856 69 ft 4 kts 124°
2026-05-06 11:39 36.69390 3.20878 65 ft 8 kts 159°
2026-05-06 11:39 36.69325 3.20907 68 ft 12 kts 162°
2026-05-06 11:39 36.69232 3.20945 74 ft 14 kts 162°
2026-05-06 11:39 36.69135 3.20958 83 ft 14 kts 206°
2026-05-06 11:40 36.69116 3.20879 83 ft 7 kts 270°
2026-05-06 11:40 36.69116 3.20871 81 ft 0 kts 270°
2026-05-06 11:41 36.69119 3.20718 85 ft 54 kts 272°
2026-05-06 11:41 36.69139 3.19887 78 ft 136 kts 271°
2026-05-06 11:41 36.69173 3.18488 405 ft 170 kts 274°
2026-05-06 11:41 36.69203 3.16998 1278 ft 175 kts 273°
2026-05-06 11:42 36.69234 3.15496 2292 ft 169 kts 275°
2026-05-06 11:42 36.69458 3.14035 2915 ft 181 kts 296°
2026-05-06 11:42 36.70314 3.12768 3163 ft 212 kts 331°
2026-05-06 11:42 36.71941 3.12628 2208 ft 282 kts 25°
2026-05-06 11:43 36.73045 3.14487 3463 ft 248 kts 58°
2026-05-06 11:43 36.73056 3.14511 3477 ft 247 kts 58°